Voltar ao catálogo

STARLINK-6235

AtivoComunicaçõesVLEO
NORAD 57094·PAYLOAD·🇺🇸 United States

Lançado Jun 22, 2023 de Vandenberg Space Force Base

Loading…

Próximas Passagens (próximas 24 horas)

TLE

AtualizadoSource: CelesTrak SupGP

Época: Sep 15, 2026, 02:45 UTC

1 57094C 23088AY  26258.11506944  .00027048  00000+0  97956-3 0  2586
2 57094  42.9999 106.3340 0001520 266.5740 344.0913 15.27568817    19

Acompanhe STARLINK-6235 em tempo real com AllMySat

Download on the App Store